Location: Malvern Link
(52.1333°N, 2.3000°W)
Time: 16:15:24
(UTC+00:00)

Cosmos 1634 Rocket - Pass Details

Date: 06 December 2021
Orbit: 959 x 993 km, 82.9° (Epoch: 23 January)

Event Time Altitude Azimuth Distance (km) Brightness Sun altitude
Exits shadow 03:13:20 25° 61° (ENE) 1,857 5.8 -42.8°
Maximum altitude 03:13:24 25° 62° (ENE) 1,857 5.8 -42.8°
Drops below altitude 10° 03:18:27 10° 116° (ESE) 2,720 6.7 -42.1°
Sets 03:21:26 0° 129° (SE) 3,657 7.3 -41.6°
